Wind_Speed
13 15 16 17 18 16 17 20 22 22 22 23 24 25 27 30 31 32 33 33 33 34 35 35 35 35 34 34 34 31 29 28 29 31 30 29 29 28 28 28 29 30 29
13 15 16 18 18 18 16 19 23 22 24 23 25 27 30 33 35 36 35 34 34 34 35 36 36 35 35 35 36 35 33 31 30 32 32 31 31 30 31 31 31 32 33
15 18 19 21 21 20 22 25 23 23 24 26 29 31 33 36 38 37 36 34 34 34 34 34 35 37 38 39 39 38 38 35 33 33 33 33 33 31 32 34 34 35 36
18 20 22 25 24 25 25 27 25 24 29 31 31 32 35 37 39 40 40 39 37 37 38 37 39 40 43 44 46 46 45 44 43 42 38 35 36 37 36 35 36 37 38
19 21 23 22 22 23 23 23 27 30 32 33 34 34 37 40 42 43 42 41 39 39 40 40 42 44 47 48 49 50 53 55 54 54 52 51 46 41 39 39 39 39 41
18 19 21 21 21 21 24 27 30 32 34 36 37 39 43 42 42 41 40 39 37 38 40 41 43 45 48 49 51 52 52 53 55 58 59 58 58 55 53 48 45 43 42
18 18 20 22 23 25 29 31 33 34 36 37 38 41 43 43 42 40 38 37 35 37 39 42 44 45 47 49 50 52 53 54 56 57 57 59 60 55 51 52 53 50 47
16 19 19 22 26 28 31 33 33 35 36 40 41 43 44 41 40 38 38 39 39 40 40 42 44 46 47 47 48 48 48 48 46 46 46 47 44 45 45 44 43 40 42
17 21 23 24 25 28 31 30 31 36 38 40 40 40 43 43 42 39 40 40 41 40 40 42 43 44 45 46 46 46 45 44 44 44 43 43 42 43 43 41 40 38 37
18 22 23 24 26 30 33 34 36 36 39 39 39 40 40 41 43 46 45 44 43 42 40 41 41 40 41 42 43 42 43 44 42 40 40 41 42 43 43 41 39 39 34
24 24 28 24 34 38 38 35 38 38 39 39 41 42 41 42 42 44 48 48 48 45 40 41 37 34 33 36 37 40 43 44 44 43 40 39 41 40 40 39 38 34 31
28 22 25 37 33 35 43 40 38 40 40 41 44 45 44 44 45 45 47 48 48 48 39 35 30 29 33 37 37 38 39 41 43 42 43 45 43 40 39 37 37 38 39
35 27 44 34 37 43 40 40 40 41 40 42 43 43 44 44 45 45 46 47 47 48 42 35 30 33 31 30 34 33 35 37 38 41 43 43 44 44 44 44 44 44 44
24 32 37 44 43 43 39 41 41 40 40 42 43 44 44 44 44 44 45 45 46 45 39 36 34 34 31 33 32 37 38 39 38 39 41 43 45 47 48 49 49 49 46
34 31 42 39 47 41 44 43 42 42 45 42 43 45 45 45 45 44 43 42 41 41 38 36 35 35 35 32 38 39 39 39 41 42 44 45 46 48 49 49 49 48 46
34 40 45 43 43 50 44 44 45 41 39 41 44 46 46 45 43 41 40 38 36 36 36 34 34 41 39 39 38 37 39 41 43 44 45 45 44 44 45 45 46 45 44
41 45 51 46 53 47 44 39 34 35 39 43 45 46 45 44 42 40 38 35 33 32 33 32 34 38 36 35 36 38 40 42 43 42 42 42 42 41 41 42 42 41 39
47 45 47 47 47 40 31 31 35 40 42 44 45 44 42 41 39 37 34 30 30 31 32 33 33 32 32 33 36 39 40 41 42 40 39 39 38 36 36 37 36 36 34
43 48 52 43 36 26 28 33 37 40 43 45 44 44 41 39 38 37 34 32 34 34 33 31 30 30 31 32 35 37 38 37 35 35 34 33 33 32 32 33 34 36 36
44 48 45 39 29 28 32 36 39 41 43 44 44 43 41 39 37 35 31 34 37 34 28 28 28 29 30 32 34 37 35 34 29 29 30 31 34 34 33 34 34 34 34
46 44 36 28 27 31 35 38 40 42 44 45 44 43 41 38 36 33 31 36 36 28 27 28 28 29 30 31 34 35 35 31 27 28 27 26 29 28 29 30 29 29 30
43 35 30 28 31 33 36 38 41 43 44 43 42 41 39 36 34 33 33 31 27 27 27 28 27 28 29 31 33 34 34 31 27 27 25 19 28 23 23 23 22 23 24
37 30 30 31 32 34 37 40 42 43 43 43 42 39 37 35 33 32 31 28 28 27 27 28 27 28 28 31 33 32 31 30 28 24 30 21 20 20 19 20 22 23 23
31 31 31 32 33 36 38 40 42 43 42 41 40 37 35 34 32 32 31 28 27 26 27 27 27 27 28 29 31 32 31 29 27 24 27 20 15 13 17 20 22 22 22
31 31 33 35 37 38 39 40 42 41 40 39 37 35 34 32 32 31 30 29 27 25 26 26 26 27 28 28 30 31 31 29 26 21 19 18 13 14 16 18 20 22 24
33 34 37 39 42 43 43 43 43 42 39 37 36 34 32 32 31 31 29 28 26 25 25 25 25 26 26 27 28 30 30 29 26 21 15 15 11 16 15 13 13 16 21
Wind_Direction
254 262 274 286 294 303 307 312 314 314 313 317 320 321 316 314 314 314 315 313 310 309 307 305 305 305 304 303 300 297 292 288 285 282 281 277 274 271 267 265 264 261 259
273 278 289 295 295 298 308 317 318 311 306 306 307 308 309 312 314 315 314 312 308 305 303 303 302 302 302 300 298 296 294 292 286 281 278 273 269 268 267 262 257 255 255
303 294 290 292 292 296 306 312 307 302 302 302 303 306 312 313 312 311 310 307 305 303 301 302 301 302 302 302 300 299 296 293 286 282 280 279 277 269 263 262 259 255 252
306 299 294 296 291 295 302 307 304 299 296 299 305 307 310 311 310 309 308 307 306 306 307 308 307 307 306 306 304 304 301 299 294 289 283 273 272 273 269 262 259 255 253
301 298 300 301 296 298 301 293 290 293 299 303 305 307 309 310 308 306 305 305 307 307 307 307 305 305 304 304 303 304 303 303 303 299 296 291 282 273 268 266 263 258 253
299 296 297 303 303 299 292 291 295 299 302 304 305 305 305 303 302 301 301 301 302 303 302 302 301 300 299 298 297 296 295 295 295 294 296 296 294 291 282 272 262 261 259
290 295 296 294 293 290 292 297 299 300 302 303 301 300 300 300 299 297 296 296 299 299 298 296 295 292 291 291 292 291 291 291 291 291 293 292 295 296 296 295 287 275 264
284 283 291 286 282 288 299 298 297 300 299 299 300 299 297 296 296 297 296 296 296 295 293 290 287 287 287 287 286 287 288 290 292 294 295 294 296 298 297 295 294 289 282
278 276 286 292 292 295 299 298 298 300 299 298 298 298 301 302 302 299 297 297 296 295 293 291 289 287 286 286 286 287 288 290 291 291 292 293 294 296 295 295 292 285 281
282 289 297 296 300 301 301 303 300 298 298 301 301 302 302 302 304 302 301 300 298 296 294 292 289 287 286 286 286 289 291 291 290 289 288 287 289 292 291 288 288 291 283
293 318 294 300 313 315 302 305 300 299 300 301 301 300 300 300 300 298 299 300 301 302 300 296 286 285 285 283 283 285 286 287 288 288 288 286 288 288 286 287 287 286 286
295 308 304 301 290 320 308 306 301 301 300 301 302 303 302 301 301 300 300 300 300 299 301 295 285 279 281 284 283 281 280 280 282 285 289 287 285 284 282 281 282 281 280
299 281 305 306 298 312 305 303 299 296 298 300 300 301 301 303 301 300 299 300 301 302 306 301 293 285 288 274 285 281 285 281 279 278 280 281 283 285 285 284 282 280 278
286 301 315 297 309 303 299 298 297 298 300 301 302 303 303 302 301 301 301 302 301 301 303 299 296 296 289 286 283 286 286 286 284 280 280 281 282 282 282 281 281 279 277
285 289 308 302 310 302 303 298 297 299 301 301 302 302 302 303 303 302 302 301 299 300 298 294 294 297 294 288 288 289 290 290 289 287 285 282 280 279 278 278 278 279 278
292 309 306 300 302 305 300 300 300 300 301 302 303 305 306 304 304 302 302 300 298 297 297 296 287 291 292 291 292 293 292 292 290 288 286 284 281 279 278 277 277 276 276
297 303 305 306 305 304 305 304 304 302 304 304 306 306 306 306 305 306 304 302 303 300 294 291 286 288 293 295 296 296 296 294 293 290 288 285 282 280 278 276 276 276 275
303 299 297 300 302 305 304 304 310 307 306 306 307 307 307 306 307 306 302 305 311 301 295 294 290 292 297 299 300 301 301 299 296 294 289 286 283 280 277 275 273 273 273
295 304 300 306 304 301 309 307 303 305 306 308 308 308 308 308 306 303 297 300 307 304 296 292 294 298 302 303 302 303 303 301 298 294 290 287 283 279 277 276 275 274 274
300 300 304 305 301 309 305 304 305 308 308 308 308 308 307 305 303 300 298 295 300 301 294 295 299 301 304 304 309 310 309 305 302 294 291 288 284 283 282 279 278 277 274
299 305 305 301 306 302 302 305 307 308 309 308 308 307 305 303 303 300 293 291 298 293 294 298 300 302 304 311 315 316 314 311 306 302 298 291 287 286 285 282 282 280 277
307 301 295 300 298 302 304 306 308 308 307 307 307 305 302 302 301 299 295 295 293 292 294 296 300 303 309 314 318 319 317 314 308 307 299 296 288 287 283 285 286 287 288
298 291 293 295 300 304 306 307 306 305 305 304 304 303 301 301 300 299 298 296 292 290 292 296 300 306 311 315 319 321 319 315 315 315 304 309 288 291 276 283 285 290 290
292 288 293 298 302 304 305 304 304 303 301 301 302 301 299 300 299 297 297 295 290 289 290 296 301 305 308 313 319 323 322 319 320 320 303 311 299 297 286 288 284 286 287
290 293 297 301 303 305 305 304 302 299 298 299 300 300 298 297 295 295 295 293 289 287 289 293 297 302 306 314 320 323 324 321 320 320 298 304 298 295 302 307 291 281 284
294 299 302 304 306 307 306 304 302 300 299 299 299 299 296 294 294 293 293 290 287 283 284 289 294 299 306 314 318 321 323 322 321 322 294 290 282 301 311 341 324 283 281
Height
3167 3167 3166 3166 3166 3165 3163 3160 3159 3158 3155 3152 3151 3149 3148 3146 3144 3142 3139 3137 3134 3130 3127 3123 3122 3120 3119 3118 3117 3117 3117 3117 3115 3114 3114 3113 3114 3115 3116 3116 3117 3118 3118
3164 3164 3163 3163 3163 3161 3159 3157 3156 3154 3152 3150 3149 3147 3144 3141 3138 3135 3133 3131 3128 3124 3121 3118 3115 3114 3112 3111 3110 3109 3109 3110 3109 3107 3107 3106 3106 3107 3107 3107 3108 3109 3110
3160 3160 3160 3160 3158 3158 3155 3154 3154 3152 3150 3148 3146 3143 3138 3135 3132 3130 3127 3126 3122 3118 3114 3112 3109 3106 3103 3101 3100 3100 3099 3100 3100 3099 3098 3098 3097 3098 3098 3099 3100 3101 3102
3156 3157 3156 3155 3155 3154 3153 3151 3150 3149 3147 3144 3140 3138 3135 3131 3127 3124 3120 3117 3114 3110 3106 3103 3100 3097 3094 3091 3088 3086 3085 3086 3086 3086 3088 3090 3089 3089 3089 3089 3090 3092 3093
3154 3154 3153 3151 3151 3150 3149 3148 3147 3145 3141 3138 3134 3132 3128 3125 3121 3118 3114 3110 3106 3103 3099 3096 3092 3089 3086 3083 3081 3079 3075 3071 3071 3070 3070 3072 3075 3078 3079 3080 3080 3081 3083
3152 3152 3150 3148 3147 3146 3146 3144 3141 3137 3134 3131 3128 3126 3122 3120 3117 3113 3108 3104 3101 3097 3093 3089 3086 3082 3079 3077 3074 3072 3070 3067 3064 3060 3057 3056 3056 3058 3062 3066 3069 3070 3071
3150 3148 3147 3146 3145 3143 3141 3138 3135 3132 3129 3126 3123 3121 3116 3113 3109 3106 3102 3098 3095 3091 3087 3083 3079 3076 3073 3069 3065 3062 3060 3058 3056 3053 3051 3047 3045 3046 3047 3047 3051 3055 3059
3147 3146 3144 3143 3140 3138 3135 3133 3130 3127 3124 3121 3117 3113 3108 3107 3102 3098 3094 3090 3087 3084 3080 3076 3072 3068 3064 3061 3058 3054 3052 3049 3047 3045 3043 3041 3040 3037 3036 3037 3038 3040 3043
3144 3141 3139 3138 3136 3133 3130 3127 3124 3121 3117 3114 3110 3106 3099 3094 3091 3090 3085 3082 3079 3075 3071 3067 3063 3059 3055 3051 3048 3044 3042 3040 3038 3037 3035 3032 3031 3030 3028 3025 3025 3028 3028
3138 3137 3135 3133 3130 3127 3125 3122 3117 3113 3109 3106 3101 3097 3092 3087 3081 3075 3073 3070 3068 3065 3061 3056 3052 3049 3046 3042 3038 3035 3032 3030 3028 3026 3025 3024 3022 3020 3019 3018 3016 3014 3017
3134 3131 3128 3125 3124 3120 3117 3115 3110 3105 3100 3097 3092 3087 3083 3078 3074 3068 3061 3058 3054 3051 3049 3045 3042 3039 3036 3033 3030 3028 3024 3021 3018 3016 3013 3012 3010 3011 3010 3008 3008 3007 3006
3127 3125 3122 3119 3116 3113 3110 3106 3101 3097 3093 3088 3083 3079 3074 3070 3065 3060 3053 3049 3044 3039 3039 3035 3031 3030 3026 3024 3022 3018 3015 3013 3010 3007 3003 3001 3000 2999 2998 2998 2998 2997 2997
3119 3117 3115 3113 3109 3106 3102 3098 3093 3089 3084 3080 3075 3070 3064 3059 3054 3048 3042 3037 3031 3027 3026 3023 3021 3018 3017 3015 3012 3008 3006 3004 3002 2999 2995 2992 2989 2987 2985 2985 2986 2986 2986
3114 3111 3109 3106 3101 3097 3093 3088 3084 3079 3074 3069 3064 3059 3055 3049 3043 3038 3033 3027 3022 3017 3017 3013 3010 3008 3006 3004 3001 2999 2996 2993 2991 2988 2986 2983 2980 2977 2974 2972 2971 2972 2974
3107 3103 3102 3097 3092 3087 3083 3079 3075 3070 3064 3060 3055 3050 3045 3040 3035 3030 3025 3020 3015 3010 3007 3004 3001 2998 2996 2994 2991 2988 2985 2982 2979 2977 2974 2971 2968 2965 2962 2960 2959 2959 2960
3100 3097 3092 3088 3084 3080 3076 3073 3067 3061 3057 3052 3047 3041 3036 3031 3025 3020 3015 3011 3007 3002 2997 2995 2992 2989 2986 2984 2981 2977 2974 2971 2968 2964 2960 2957 2955 2953 2950 2949 2947 2947 2947
3092 3090 3087 3082 3078 3074 3069 3063 3058 3054 3049 3043 3037 3032 3026 3021 3016 3011 3006 3001 2997 2994 2990 2988 2985 2981 2978 2974 2971 2968 2964 2960 2956 2952 2948 2945 2943 2941 2938 2937 2935 2935 2935
3087 3084 3079 3075 3069 3064 3059 3055 3050 3044 3038 3033 3028 3022 3017 3012 3007 3003 2998 2995 2991 2986 2982 2979 2977 2974 2971 2967 2962 2958 2954 2950 2944 2941 2936 2933 2931 2929 2927 2926 2925 2924 2925
3079 3074 3069 3063 3059 3055 3050 3045 3040 3035 3029 3024 3018 3012 3008 3003 2999 2994 2991 2988 2984 2980 2975 2972 2969 2966 2963 2959 2955 2950 2945 2940 2935 2930 2926 2924 2920 2919 2918 2917 2916 2915 2914
3069 3064 3058 3054 3050 3046 3041 3036 3031 3026 3021 3015 3010 3004 3000 2996 2991 2986 2983 2980 2977 2972 2968 2965 2962 2959 2956 2952 2946 2940 2937 2931 2928 2922 2918 2915 2911 2910 2909 2907 2906 2906 2905
3058 3053 3049 3046 3042 3038 3033 3028 3023 3018 3012 3006 3001 2996 2991 2986 2982 2978 2975 2972 2969 2965 2962 2958 2956 2953 2949 2944 2938 2933 2926 2922 2919 2914 2911 2909 2904 2902 2900 2898 2897 2896 2895
3049 3046 3042 3039 3034 3029 3024 3019 3014 3008 3002 2997 2992 2987 2982 2978 2974 2970 2967 2964 2961 2957 2955 2952 2950 2946 2942 2937 2932 2926 2920 2915 2912 2908 2903 2903 2895 2895 2893 2891 2890 2889 2888
3042 3039 3035 3030 3026 3021 3016 3010 3005 2999 2994 2989 2984 2979 2974 2970 2966 2963 2959 2956 2953 2950 2948 2946 2943 2939 2935 2931 2926 2921 2915 2909 2905 2902 2894 2894 2891 2889 2888 2887 2885 2883 2882
3035 3031 3027 3022 3018 3013 3008 3002 2996 2990 2985 2980 2975 2970 2966 2962 2958 2955 2952 2949 2946 2944 2942 2939 2936 2933 2930 2926 2920 2914 2909 2904 2900 2896 2889 2888 2886 2885 2883 2882 2880 2878 2876
3027 3023 3019 3014 3009 3005 2998 2993 2987 2981 2975 2970 2966 2961 2957 2954 2951 2947 2944 2942 2940 2938 2936 2933 2931 2928 2924 2919 2914 2909 2904 2899 2895 2892 2886 2883 2882 2880 2880 2878 2875 2872 2870
3019 3014 3009 3004 2999 2994 2988 2983 2976 2970 2965 2960 2956 2953 2949 2946 2943 2940 2937 2934 2933 2932 2929 2927 2925 2922 2918 2913 2909 2904 2899 2894 2890 2887 2882 2881 2879 2876 2876 2874 2870 2867 2865